Regional Weather Roundup
Issued by NWS

Home | Current Version | Previous Version | Text Only | Print | Product List | Glossary On
Versions: 1 2 3 4 5 6 7 8 9 10 11 12 13 14 15 16 17 18 19 20 21 22 23 24 25 26 27 28 29 30 31 32 33 34 35 36 37 38 39 40 41 42 43 44 45 46 47 48 49 50
000
ASUS43 KLMK 210810
RWRKY
KENTUCKY REGIONAL WEATHER ROUNDUP
NATIONAL WEATHER SERVICE LOUISVILLE KY
400 AM EDT TUE OCT 21 2014

NOTE "FAIR" INDICATES FEW OR NO CLOUDS BELOW 12,000 FEET
WITH NO SIGNIFICANT WEATHER AND/OR OBSTRUCTIONS TO VISIBILITY.

KYZ001>023-026-027-061>063-070>075-210900-
WESTERN AND SOUTH CENTRAL KENTUCKY

CITY           SKY/WX    TMP DP  RH WIND       PRES   REMARKS
PADUCAH        CLEAR     46  45  96 SW3       30.01S FOG
HENDERSON      CLEAR    N/A N/A N/A CALM      30.00S
OWENSBORO      CLEAR     47  44  89 CALM      30.00S
HOPKINSVILLE   CLEAR     50  50 100 SW3       30.00F FOG
BOWLING GREEN  CLEAR     49  46  90 CALM      30.00S
GLASGOW          N/A     48  48 100 CALM      29.99S FOG
$$

KYZ024-025-028>034-038-045-046-053-210900-
NORTH CENTRAL KENTUCKY

CITY           SKY/WX    TMP DP  RH WIND       PRES   REMARKS
LOUISVILLE/SDF CLEAR     51  46  83 SW7       29.96S
LOUISVILLE/LOU FOG       46  46 100 CALM      29.97S VSB 3/4
FORT KNOX      CLEAR     47  44  90 CALM      29.97R
$$

KYZ035>037-039>044-047>052-055>060-089>105-210900-
NORTHEAST KENTUCKY

CITY           SKY/WX    TMP DP  RH WIND       PRES   REMARKS
LEXINGTON      MOCLDY    53  48  83 W5        29.95R
COVINGTON      MOCLDY    51  47  86 W7        29.93R
FRANKFORT      MOCLDY    52  48  86 NW3       29.94S
$$

KYZ054-064>069-076>088-106>120-210900-
SOUTHEAST KENTUCKY

CITY           SKY/WX    TMP DP  RH WIND       PRES   REMARKS
JACKSON        PTCLDY    50  47  89 VRB3      29.94F
LONDON         CLEAR     48  45  89 CALM      29.97S
SOMERSET         N/A     45  45 100 CALM      29.98S FOG
MIDDLESBORO    PTCLDY    47  46  99 CALM      29.98F
MONTICELLO     SUNNY     45  44  96 CALM      30.00S
$$




USA.gov is the U.S. government's official web portal to all federal, state and local government web resources and services.